Home   Weather   Örebro   Past weeks

Flag for Sweden Past Weather in Örebro, Sweden — Yesterday and Last 2 Weeks

Now
45 °F

Quite cool.


Feels Like: 41 °F
Forecast: 33 / 44 °F
Wind: 7 mph from West

Location: Orebro Private

Current Time: Apr 23, 2017 at 10:07:08 am

Latest Report: Apr 23, 2017 at 9:20 am


Visibility: N/A

Pressure: 29.77 "Hg

Humidity: 42%

Dew Point: 23 °F

Location of ÖrebroLocation

Past Weather in Örebro — Graph

°F

Örebro Temperature Yesterday

Maximum temperature yesterday: 52 °F (at 2:20 pm)
Minimum temperature yesterday: 37 °F (at 12:20 am)
Average temperature yesterday: 43 °F

High & Low Weather Summary for the Past Weeks

 TemperatureHumidityPressure
High59 °F (Apr 8, 4:20 pm)100% (Apr 10, 3:20 am)30.51 "Hg (Apr 10, 3:20 am)
Low10 °F (Apr 15, 6:20 am)24% (Apr 22, 2:20 pm)29.39 "Hg (Apr 10, 10:50 am)
Average39 °F72%29.87 "Hg
* Reported Apr 8 8:20 am — Apr 23 8:20 am, Örebro, Weather by CustomWeather, © 2017

Note: Actual official high and low records may vary slightly from our data, if they occured in-between our weather recording intervals... More about our weather records

Advertising

Örebro Weather History for the Previous 24 Hours

Scroll right to see more
 ConditionsComfort  
Time TempWeatherWind HumidityBarometerVisibility
8:20 am
Sun, Apr 23
41 °FPassing clouds.7 mph57%29.77 "HgN/A
7:50 am37 °FSunny.6 mph65%29.77 "Hg10 mi
7:20 am36 °FSunny.6 mph70%29.77 "Hg10 mi
6:50 am34 °FChilly.5 mph70%29.77 "HgN/A
6:20 am32 °FChilly.6 mph75%29.77 "HgN/A
5:50 am32 °FChilly.8 mph75%29.77 "HgN/A
5:20 am32 °FChilly.7 mph69%29.77 "HgN/A
4:50 am32 °FChilly.8 mph69%29.77 "HgN/A
4:20 am34 °FChilly.8 mph65%29.77 "HgN/A
3:50 am34 °FClear.10 mph65%29.77 "Hg10 mi
3:20 am32 °FClear.8 mph69%29.77 "Hg10 mi
2:50 am32 °FClear.7 mph69%29.77 "Hg10 mi
2:20 am32 °FClear.7 mph69%29.77 "Hg10 mi
1:50 am32 °FClear.6 mph69%29.77 "Hg10 mi
1:20 am36 °FChilly.6 mph56%29.77 "HgN/A
12:50 am36 °FChilly.6 mph56%29.77 "HgN/A
12:20 am36 °FChilly.8 mph56%29.77 "HgN/A
11:50 pm
Sat, Apr 22
37 °FChilly.6 mph52%29.77 "HgN/A
11:20 pm39 °FChilly.6 mph48%29.77 "HgN/A
10:50 pm39 °FChilly.9 mph48%29.77 "HgN/A
10:20 pm39 °FChilly.7 mph45%29.77 "HgN/A
9:50 pm41 °FQuite cool.7 mph39%29.77 "HgN/A
9:20 pm43 °FQuite cool.7 mph34%29.74 "HgN/A
8:50 pm45 °FQuite cool.10 mph31%29.74 "HgN/A
8:20 pm45 °FPassing clouds.15 mph31%29.74 "HgN/A
7:50 pm48 °FPassing clouds.18 mph29%29.74 "HgN/A
7:20 pm46 °FPassing clouds.16 mph32%29.71 "HgN/A
6:50 pm46 °FScattered clouds.18 mph32%29.71 "HgN/A
6:20 pm48 °FScattered clouds.14 mph29%29.71 "HgN/A
5:50 pm48 °FPassing clouds.18 mph27%29.71 "HgN/A
5:20 pm50 °FScattered clouds.21 mph28%29.68 "HgN/A
4:50 pm50 °FScattered clouds.17 mph25%29.68 "HgN/A
4:20 pm48 °FPassing clouds.23 mph29%29.68 "HgN/A
3:50 pm48 °FScattered clouds.23 mph29%29.68 "HgN/A
3:20 pm50 °FPartly sunny.18 mph28%29.65 "HgN/A
2:50 pm48 °FScattered clouds.20 mph27%29.65 "HgN/A
2:20 pm52 °FScattered clouds.25 mph24%29.65 "HgN/A
1:50 pm48 °FPartly sunny.24 mph27%29.65 "HgN/A
1:20 pm48 °FScattered clouds.21 mph32%29.65 "HgN/A
12:50 pm48 °FPartly sunny.20 mph29%29.65 "HgN/A
12:20 pm48 °FPartly sunny.23 mph29%29.65 "HgN/A
11:50 am46 °FPartly sunny.21 mph34%29.62 "HgN/A
11:20 am46 °FPartly sunny.21 mph34%29.62 "HgN/A
10:50 am46 °FPartly sunny.22 mph34%29.62 "HgN/A
10:20 am45 °FPassing clouds.23 mph39%29.59 "HgN/A
Weather by CustomWeather, © 2017

See weather overviewHow to use our weather pages